Time,TemperatureF,DewpointF,PressureIn,WindDirection,WindDirectionDegrees,WindSpeedMPH,WindSpeedGustMPH,Humidity,HourlyPrecipIn,Conditions,Clouds,dailyrainin,SoftwareType,DateUTC
2013-02-07 00:00:00,40.6,34.3,30.10,NNW,332,0.0,-999.0,78,0.00,,,0.00,Wunderground v.1.12,2013-02-07 05:00:00,
2013-02-07 00:03:00,40.6,34.3,30.10,NNW,332,0.0,-999.0,78,0.00,,,0.00,Wunderground v.1.12,2013-02-07 05:03:00,
2013-02-07 00:05:00,40.5,34.2,30.10,NNW,332,0.0,-999.0,78,0.00,,,0.00,Wunderground v.1.12,2013-02-07 05:05:00,
2013-02-07 00:11:00,40.5,34.5,30.11,NNW,332,0.0,-999.0,79,0.00,,,0.00,Wunderground v.1.12,2013-02-07 05:11:00,
2013-02-07 00:16:00,40.5,34.5,30.11,NNW,332,0.0,-999.0,79,0.00,,,0.00,Wunderground v.1.12,2013-02-07 05:16:00,
2013-02-07 00:23:00,40.3,34.3,30.11,NNW,332,0.0,-999.0,79,0.00,,,0.00,Wunderground v.1.12,2013-02-07 05:23:00,
2013-02-07 00:28:00,40.3,34.3,30.11,NNW,332,0.0,-999.0,79,0.00,,,0.00,Wunderground v.1.12,2013-02-07 05:28:00,
2013-02-07 00:33:00,40.3,34.3,30.11,NNW,332,0.0,-999.0,79,0.00,,,0.00,Wunderground v.1.12,2013-02-07 05:33:00,
2013-02-07 00:38:00,40.3,34.6,30.11,NNW,332,0.0,-999.0,80,0.00,,,0.00,Wunderground v.1.12,2013-02-07 05:38:00,
2013-02-07 00:44:00,40.3,34.6,30.10,NNW,332,0.0,-999.0,80,0.00,,,0.00,Wunderground v.1.12,2013-02-07 05:44:00,
2013-02-07 00:49:00,40.3,34.9,30.10,NNW,332,0.0,-999.0,81,0.00,,,0.00,Wunderground v.1.12,2013-02-07 05:49:00,
2013-02-07 00:55:00,40.3,34.9,30.10,NNW,332,0.0,-999.0,81,0.00,,,0.00,Wunderground v.1.12,2013-02-07 05:55:00,
2013-02-07 01:00:00,40.3,34.9,30.10,NNW,332,0.0,-999.0,81,0.00,,,0.00,Wunderground v.1.12,2013-02-07 06:00:00,
2013-02-07 01:06:00,40.3,34.9,30.10,NNW,332,0.0,-999.0,81,0.00,,,0.00,Wunderground v.1.12,2013-02-07 06:06:00,
2013-02-07 01:13:00,40.3,35.2,30.10,NNW,332,0.0,-999.0,82,0.00,,,0.00,Wunderground v.1.12,2013-02-07 06:13:00,
2013-02-07 01:18:00,40.3,35.2,30.10,NNW,332,0.0,-999.0,82,0.00,,,0.00,Wunderground v.1.12,2013-02-07 06:18:00,
2013-02-07 01:23:00,40.3,35.2,30.10,NNW,332,0.0,-999.0,82,0.00,,,0.00,Wunderground v.1.12,2013-02-07 06:23:00,
2013-02-07 01:28:00,40.3,35.2,30.10,NNW,332,0.0,-999.0,82,0.00,,,0.00,Wunderground v.1.12,2013-02-07 06:28:00,
2013-02-07 01:34:00,40.5,35.7,30.10,NNW,332,0.0,-999.0,83,0.00,,,0.00,Wunderground v.1.12,2013-02-07 06:34:00,
2013-02-07 01:39:00,40.5,35.7,30.10,NNW,332,0.0,-999.0,83,0.00,,,0.00,Wunderground v.1.12,2013-02-07 06:39:00,
2013-02-07 01:45:00,40.5,35.7,30.10,NNW,332,0.0,-999.0,83,0.00,,,0.00,Wunderground v.1.12,2013-02-07 06:45:00,
2013-02-07 01:50:00,40.6,35.8,30.10,NNW,332,0.0,-999.0,83,0.00,,,0.00,Wunderground v.1.12,2013-02-07 06:50:00,
2013-02-07 01:55:00,40.6,35.8,30.10,NNW,332,0.0,-999.0,83,0.00,,,0.00,Wunderground v.1.12,2013-02-07 06:55:00,
2013-02-07 02:00:00,40.8,36.3,30.10,NNW,332,0.0,-999.0,84,0.00,,,0.00,Wunderground v.1.12,2013-02-07 07:00:00,
2013-02-07 02:05:00,40.8,36.3,30.10,NNW,332,0.0,-999.0,84,0.00,,,0.00,Wunderground v.1.12,2013-02-07 07:05:00,
2013-02-07 02:10:00,40.8,36.3,30.10,NNW,332,0.0,-999.0,84,0.00,,,0.00,Wunderground v.1.12,2013-02-07 07:10:00,
2013-02-07 02:15:00,40.9,36.4,30.11,NNW,332,0.0,-999.0,84,0.00,,,0.00,Wunderground v.1.12,2013-02-07 07:15:00,
2013-02-07 02:20:00,40.9,36.4,30.11,NNW,332,0.0,-999.0,84,0.00,,,0.00,Wunderground v.1.12,2013-02-07 07:20:00,
2013-02-07 02:25:00,40.9,36.4,30.11,NNW,332,0.0,-999.0,84,0.00,,,0.00,Wunderground v.1.12,2013-02-07 07:25:00,
2013-02-07 02:30:00,41.1,36.6,30.11,NNW,332,0.0,-999.0,84,0.00,,,0.00,Wunderground v.1.12,2013-02-07 07:30:00,
2013-02-07 02:35:00,41.1,36.6,30.11,NNW,332,0.0,-999.0,84,0.00,,,0.00,Wunderground v.1.12,2013-02-07 07:35:00,
2013-02-07 02:40:00,41.1,36.6,30.11,NNW,332,0.0,-999.0,84,0.00,,,0.00,Wunderground v.1.12,2013-02-07 07:40:00,
2013-02-07 02:45:00,41.2,36.7,30.12,NNW,332,0.0,-999.0,84,0.00,,,0.00,Wunderground v.1.12,2013-02-07 07:45:00,
2013-02-07 02:50:00,41.2,36.7,30.12,NNW,332,0.0,-999.0,84,0.00,,,0.00,Wunderground v.1.12,2013-02-07 07:50:00,
2013-02-07 02:55:00,41.2,36.7,30.12,NNW,332,0.0,-999.0,84,0.00,,,0.00,Wunderground v.1.12,2013-02-07 07:55:00,
2013-02-07 03:00:00,41.3,36.8,30.12,NNW,332,0.0,-999.0,84,0.00,,,0.00,Wunderground v.1.12,2013-02-07 08:00:00,
2013-02-07 03:05:00,41.3,36.8,30.12,NNW,332,0.0,-999.0,84,0.00,,,0.00,Wunderground v.1.12,2013-02-07 08:05:00,
2013-02-07 03:10:00,41.5,37.0,30.12,NNW,332,0.0,-999.0,84,0.00,,,0.00,Wunderground v.1.12,2013-02-07 08:10:00,
2013-02-07 03:16:00,41.5,37.0,30.13,NNW,332,0.0,-999.0,84,0.00,,,0.00,Wunderground v.1.12,2013-02-07 08:16:00,
2013-02-07 03:21:00,41.5,37.0,30.13,NNW,332,0.0,-999.0,84,0.00,,,0.00,Wunderground v.1.12,2013-02-07 08:21:00,
2013-02-07 03:26:00,41.5,37.0,30.13,NNW,332,0.0,-999.0,84,0.00,,,0.00,Wunderground v.1.12,2013-02-07 08:26:00,
2013-02-07 03:31:00,41.6,37.1,30.13,NNW,332,0.0,-999.0,84,0.00,,,0.00,Wunderground v.1.12,2013-02-07 08:31:00,
2013-02-07 03:36:00,41.6,37.1,30.13,NNW,332,0.0,-999.0,84,0.00,,,0.00,Wunderground v.1.12,2013-02-07 08:36:00,
2013-02-07 03:41:00,41.6,37.1,30.13,NNW,332,0.0,-999.0,84,0.00,,,0.00,Wunderground v.1.12,2013-02-07 08:41:00,
2013-02-07 03:46:00,41.6,37.1,30.13,NNW,332,0.0,-999.0,84,0.00,,,0.00,Wunderground v.1.12,2013-02-07 08:46:00,
2013-02-07 03:51:00,41.8,37.3,30.13,NNW,332,0.0,-999.0,84,0.00,,,0.00,Wunderground v.1.12,2013-02-07 08:51:00,
2013-02-07 03:56:00,41.8,37.3,30.13,NNW,332,0.0,-999.0,84,0.00,,,0.00,Wunderground v.1.12,2013-02-07 08:56:00,
2013-02-07 04:01:00,41.9,37.4,30.13,NNW,332,0.0,-999.0,84,0.00,,,0.00,Wunderground v.1.12,2013-02-07 09:01:00,
2013-02-07 04:06:00,41.9,37.4,30.13,NNW,332,0.0,-999.0,84,0.00,,,0.00,Wunderground v.1.12,2013-02-07 09:06:00,
2013-02-07 04:11:00,41.9,37.4,30.13,NNW,332,0.0,-999.0,84,0.00,,,0.00,Wunderground v.1.12,2013-02-07 09:11:00,
2013-02-07 04:16:00,42.1,37.6,30.13,NNW,332,0.0,-999.0,84,0.00,,,0.00,Wunderground v.1.12,2013-02-07 09:16:00,
2013-02-07 04:21:00,42.1,37.6,30.13,NNW,332,0.0,-999.0,84,0.00,,,0.00,Wunderground v.1.12,2013-02-07 09:21:00,
2013-02-07 04:26:00,42.2,37.7,30.13,NNW,332,0.0,-999.0,84,0.00,,,0.00,Wunderground v.1.12,2013-02-07 09:26:00,
2013-02-07 04:31:00,42.2,37.7,30.11,NNW,332,0.0,-999.0,84,0.00,,,0.00,Wunderground v.1.12,2013-02-07 09:31:00,
2013-02-07 04:36:00,42.3,37.8,30.11,NNW,332,0.0,-999.0,84,0.00,,,0.00,Wunderground v.1.12,2013-02-07 09:36:00,
2013-02-07 04:41:00,42.3,37.8,30.11,NNW,332,0.0,-999.0,84,0.00,,,0.00,Wunderground v.1.12,2013-02-07 09:41:00,
2013-02-07 04:46:00,42.3,37.8,30.11,NNW,332,0.0,-999.0,84,0.00,,,0.00,Wunderground v.1.12,2013-02-07 09:46:00,
2013-02-07 04:51:00,42.5,38.0,30.11,NNW,332,0.0,-999.0,84,0.00,,,0.00,Wunderground v.1.12,2013-02-07 09:51:00,
2013-02-07 04:56:00,42.5,38.0,30.10,NNW,332,0.0,-999.0,84,0.00,,,0.00,Wunderground v.1.12,2013-02-07 09:56:00,
2013-02-07 05:01:00,42.6,38.1,30.10,NNW,332,0.0,-999.0,84,0.00,,,0.00,Wunderground v.1.12,2013-02-07 10:01:00,
2013-02-07 05:06:00,42.6,38.1,30.10,NNW,332,0.0,-999.0,84,0.00,,,0.00,Wunderground v.1.12,2013-02-07 10:06:00,
2013-02-07 05:11:00,42.8,38.3,30.10,NNW,332,0.0,-999.0,84,0.00,,,0.00,Wunderground v.1.12,2013-02-07 10:11:00,
2013-02-07 05:16:00,42.8,38.3,30.10,NNW,332,0.0,-999.0,84,0.00,,,0.00,Wunderground v.1.12,2013-02-07 10:16:00,
2013-02-07 05:21:00,42.8,38.3,30.10,NNW,332,0.0,-999.0,84,0.00,,,0.00,Wunderground v.1.12,2013-02-07 10:21:00,
2013-02-07 05:26:00,42.8,38.3,30.11,NNW,332,0.0,-999.0,84,0.00,,,0.00,Wunderground v.1.12,2013-02-07 10:26:00,
2013-02-07 05:31:00,42.9,38.4,30.11,NNW,332,0.0,-999.0,84,0.00,,,0.00,Wunderground v.1.12,2013-02-07 10:31:00,
2013-02-07 05:36:00,42.9,38.1,30.11,NNW,332,0.0,-999.0,83,0.00,,,0.00,Wunderground v.1.12,2013-02-07 10:36:00,
2013-02-07 05:41:00,42.9,38.1,30.11,NNW,332,0.0,-999.0,83,0.00,,,0.00,Wunderground v.1.12,2013-02-07 10:41:00,
2013-02-07 05:46:00,42.9,38.1,30.11,NNW,332,0.0,-999.0,83,0.00,,,0.00,Wunderground v.1.12,2013-02-07 10:46:00,
2013-02-07 05:51:00,43.1,38.3,30.11,NNW,332,0.0,-999.0,83,0.00,,,0.00,Wunderground v.1.12,2013-02-07 10:51:00,
2013-02-07 05:56:00,43.1,38.3,30.11,NNW,332,0.0,-999.0,83,0.00,,,0.00,Wunderground v.1.12,2013-02-07 10:56:00,
2013-02-07 06:01:00,43.2,38.4,30.11,NNW,332,0.0,-999.0,83,0.00,,,0.00,Wunderground v.1.12,2013-02-07 11:01:00,
2013-02-07 06:06:00,43.3,38.5,30.11,NNW,332,0.0,-999.0,83,0.00,,,0.00,Wunderground v.1.12,2013-02-07 11:06:00,
2013-02-07 06:11:00,43.3,38.5,30.11,NNW,332,0.0,-999.0,83,0.00,,,0.00,Wunderground v.1.12,2013-02-07 11:11:00,
2013-02-07 06:16:00,43.5,38.7,30.11,NNW,332,0.0,-999.0,83,0.00,,,0.00,Wunderground v.1.12,2013-02-07 11:16:00,
2013-02-07 06:21:00,43.6,38.8,30.11,NNW,332,0.0,-999.0,83,0.00,,,0.00,Wunderground v.1.12,2013-02-07 11:21:00,
2013-02-07 06:26:00,43.6,38.8,30.11,NNW,332,0.0,-999.0,83,0.00,,,0.00,Wunderground v.1.12,2013-02-07 11:26:00,
2013-02-07 06:31:00,43.8,38.7,30.11,NNW,332,0.0,-999.0,82,0.00,,,0.00,Wunderground v.1.12,2013-02-07 11:31:00,
2013-02-07 06:36:00,43.9,39.1,30.11,NNW,332,0.0,-999.0,83,0.00,,,0.00,Wunderground v.1.12,2013-02-07 11:36:00,
2013-02-07 06:41:00,44.1,39.0,30.12,NNW,332,0.0,-999.0,82,0.00,,,0.00,Wunderground v.1.12,2013-02-07 11:41:00,
2013-02-07 06:46:00,44.1,39.0,30.12,NNW,332,0.0,-999.0,82,0.00,,,0.00,Wunderground v.1.12,2013-02-07 11:46:00,
2013-02-07 06:51:00,44.2,39.1,30.12,NNW,331,0.0,-999.0,82,0.00,,,0.00,Wunderground v.1.12,2013-02-07 11:51:00,
2013-02-07 06:56:00,44.5,39.7,30.12,NNW,332,0.0,-999.0,83,0.00,,,0.00,Wunderground v.1.12,2013-02-07 11:56:00,
2013-02-07 07:01:00,44.6,39.8,30.12,NNW,332,0.0,-999.0,83,0.00,,,0.01,Wunderground v.1.12,2013-02-07 12:01:00,
2013-02-07 07:07:00,44.8,40.3,30.12,NNW,332,0.0,-999.0,84,0.00,,,0.01,Wunderground v.1.12,2013-02-07 12:07:00,
2013-02-07 07:12:00,44.8,40.3,30.14,NNW,332,0.0,-999.0,84,0.00,,,0.01,Wunderground v.1.12,2013-02-07 12:12:00,
2013-02-07 07:17:00,44.8,40.3,30.14,NNW,332,0.0,-999.0,84,0.00,,,0.01,Wunderground v.1.12,2013-02-07 12:17:00,
2013-02-07 07:22:00,44.9,40.4,30.14,NNW,332,0.0,-999.0,84,0.00,,,0.01,Wunderground v.1.12,2013-02-07 12:22:00,
2013-02-07 07:27:00,44.9,40.4,30.12,NNW,332,0.0,-999.0,84,0.00,,,0.01,Wunderground v.1.12,2013-02-07 12:27:00,
2013-02-07 07:32:00,44.9,40.4,30.12,NNW,332,0.0,-999.0,84,0.00,,,0.01,Wunderground v.1.12,2013-02-07 12:32:00,
2013-02-07 07:37:00,44.9,40.7,30.12,NNW,332,0.0,-999.0,85,0.00,,,0.01,Wunderground v.1.12,2013-02-07 12:37:00,
2013-02-07 07:42:00,44.9,40.7,30.13,NNW,332,0.0,-999.0,85,0.00,,,0.01,Wunderground v.1.12,2013-02-07 12:42:00,
2013-02-07 07:47:00,44.8,40.6,30.13,NNW,332,0.0,-999.0,85,0.00,,,0.01,Wunderground v.1.12,2013-02-07 12:47:00,
2013-02-07 07:52:00,44.8,40.6,30.13,NNW,332,0.0,-999.0,85,0.00,,,0.01,Wunderground v.1.12,2013-02-07 12:52:00,
2013-02-07 07:57:00,44.8,40.6,30.14,NNW,332,0.0,-999.0,85,0.00,,,0.01,Wunderground v.1.12,2013-02-07 12:57:00,
2013-02-07 08:02:00,44.8,40.6,30.14,NNW,332,0.0,-999.0,85,0.00,,,0.01,Wunderground v.1.12,2013-02-07 13:02:00,
2013-02-07 08:08:00,44.6,40.7,30.14,NNW,332,0.0,-999.0,86,0.00,,,0.01,Wunderground v.1.12,2013-02-07 13:08:00,
2013-02-07 08:13:00,44.6,40.7,30.14,NNW,332,0.0,-999.0,86,0.00,,,0.01,Wunderground v.1.12,2013-02-07 13:13:00,
2013-02-07 08:18:00,44.6,40.7,30.14,NNW,332,0.0,-999.0,86,0.00,,,0.01,Wunderground v.1.12,2013-02-07 13:18:00,
2013-02-07 08:23:00,44.6,40.7,30.14,NNW,332,0.0,-999.0,86,0.00,,,0.01,Wunderground v.1.12,2013-02-07 13:23:00,
2013-02-07 08:28:00,44.6,40.7,30.13,NNW,332,0.0,-999.0,86,0.00,,,0.01,Wunderground v.1.12,2013-02-07 13:28:00,
2013-02-07 08:33:00,44.6,40.7,30.13,NNW,332,0.0,-999.0,86,0.00,,,0.01,Wunderground v.1.12,2013-02-07 13:33:00,
2013-02-07 08:38:00,44.6,40.7,30.13,NNW,332,0.0,-999.0,86,0.00,,,0.01,Wunderground v.1.12,2013-02-07 13:38:00,
2013-02-07 08:44:00,44.5,40.9,30.13,NNW,332,0.0,-999.0,87,0.00,,,0.01,Wunderground v.1.12,2013-02-07 13:44:00,
2013-02-07 08:49:00,44.5,40.9,30.13,North,358,0.0,-999.0,87,0.00,,,0.01,Wunderground v.1.12,2013-02-07 13:49:00,
2013-02-07 08:54:00,44.5,40.9,30.13,East,96,0.0,-999.0,87,0.00,,,0.01,Wunderground v.1.12,2013-02-07 13:54:00,
2013-02-07 08:59:00,44.5,40.9,30.12,East,81,0.0,-999.0,87,0.00,,,0.01,Wunderground v.1.12,2013-02-07 13:59:00,
2013-02-07 09:04:00,44.5,40.9,30.12,East,81,0.0,-999.0,87,0.00,,,0.01,Wunderground v.1.12,2013-02-07 14:04:00,
2013-02-07 09:09:00,44.5,40.9,30.12,North,5,0.0,-999.0,87,0.00,,,0.01,Wunderground v.1.12,2013-02-07 14:09:00,
2013-02-07 09:14:00,44.3,40.7,30.11,ENE,74,3.0,-999.0,87,0.00,,,0.01,Wunderground v.1.12,2013-02-07 14:14:00,
2013-02-07 09:19:00,44.3,40.7,30.11,NE,44,0.0,-999.0,87,0.00,,,0.01,Wunderground v.1.12,2013-02-07 14:19:00,
2013-02-07 09:24:00,44.3,40.7,30.11,NNE,33,0.0,-999.0,87,0.00,,,0.01,Wunderground v.1.12,2013-02-07 14:24:00,
2013-02-07 09:29:00,44.3,40.7,30.11,NE,37,0.0,-999.0,87,0.00,,,0.01,Wunderground v.1.12,2013-02-07 14:29:00,
2013-02-07 09:35:00,44.3,40.7,30.11,NE,40,0.0,-999.0,87,0.00,,,0.01,Wunderground v.1.12,2013-02-07 14:35:00,
2013-02-07 09:40:00,44.3,40.7,30.11,NE,51,0.0,-999.0,87,0.00,,,0.01,Wunderground v.1.12,2013-02-07 14:40:00,
2013-02-07 09:45:00,44.3,40.7,30.10,NE,47,0.0,-999.0,87,0.00,,,0.01,Wunderground v.1.12,2013-02-07 14:45:00,
2013-02-07 09:50:00,44.3,40.7,30.10,North,358,0.0,-999.0,87,0.00,,,0.01,Wunderground v.1.12,2013-02-07 14:50:00,
2013-02-07 09:55:00,44.3,40.7,30.10,North,5,0.0,-999.0,87,0.00,,,0.01,Wunderground v.1.12,2013-02-07 14:55:00,
2013-02-07 10:01:00,44.5,40.9,30.10,North,6,0.0,-999.0,87,0.00,,,0.01,Wunderground v.1.12,2013-02-07 15:01:00,
2013-02-07 10:06:00,44.5,40.9,30.10,East,82,0.0,-999.0,87,0.00,,,0.01,Wunderground v.1.12,2013-02-07 15:06:00,
2013-02-07 10:11:00,44.6,41.0,30.10,ENE,64,0.0,-999.0,87,0.00,,,0.01,Wunderground v.1.12,2013-02-07 15:11:00,
2013-02-07 10:16:00,44.6,41.0,30.10,NE,54,0.0,-999.0,87,0.00,,,0.01,Wunderground v.1.12,2013-02-07 15:16:00,
2013-02-07 10:21:00,44.8,41.2,30.10,NE,34,0.0,-999.0,87,0.00,,,0.01,Wunderground v.1.12,2013-02-07 15:21:00,
2013-02-07 10:26:00,44.9,41.3,30.10,NE,53,0.0,-999.0,87,0.00,,,0.01,Wunderground v.1.12,2013-02-07 15:26:00,
2013-02-07 10:31:00,44.9,41.3,30.10,NNE,19,0.0,-999.0,87,0.00,,,0.01,Wunderground v.1.12,2013-02-07 15:31:00,
2013-02-07 10:36:00,45.1,41.5,30.10,NNE,19,0.0,-999.0,87,0.00,,,0.01,Wunderground v.1.12,2013-02-07 15:36:00,
2013-02-07 10:41:00,45.1,41.5,30.10,NNE,14,0.0,-999.0,87,0.00,,,0.01,Wunderground v.1.12,2013-02-07 15:41:00,
2013-02-07 10:46:00,45.2,41.6,30.09,ENE,60,0.0,-999.0,87,0.00,,,0.01,Wunderground v.1.12,2013-02-07 15:46:00,
2013-02-07 10:51:00,45.2,41.6,30.09,NE,51,0.0,-999.0,87,0.00,,,0.01,Wunderground v.1.12,2013-02-07 15:51:00,
2013-02-07 10:56:00,45.4,42.1,30.09,ENE,60,0.0,-999.0,88,0.00,,,0.01,Wunderground v.1.12,2013-02-07 15:56:00,
2013-02-07 11:01:00,45.4,41.8,30.09,NE,38,0.0,-999.0,87,0.00,,,0.01,Wunderground v.1.12,2013-02-07 16:01:00,
2013-02-07 11:06:00,45.5,42.2,30.09,ENE,64,0.0,-999.0,88,0.00,,,0.01,Wunderground v.1.12,2013-02-07 16:06:00,
2013-02-07 11:11:00,45.5,42.2,30.09,ENE,75,1.0,-999.0,88,0.00,,,0.01,Wunderground v.1.12,2013-02-07 16:11:00,
2013-02-07 11:16:00,45.7,42.3,30.08,North,355,0.0,-999.0,88,0.00,,,0.01,Wunderground v.1.12,2013-02-07 16:16:00,
2013-02-07 11:21:00,45.7,42.3,30.08,NE,46,0.0,-999.0,88,0.00,,,0.01,Wunderground v.1.12,2013-02-07 16:21:00,
2013-02-07 11:26:00,45.8,42.4,30.08,NNE,24,0.0,-999.0,88,0.00,,,0.01,Wunderground v.1.12,2013-02-07 16:26:00,
2013-02-07 11:31:00,45.8,42.4,30.08,NNE,20,0.0,-999.0,88,0.00,,,0.01,Wunderground v.1.12,2013-02-07 16:31:00,
2013-02-07 11:36:00,45.8,42.4,30.08,NNE,22,1.0,-999.0,88,0.00,,,0.01,Wunderground v.1.12,2013-02-07 16:36:00,
2013-02-07 11:41:00,45.8,42.4,30.08,NE,53,0.0,-999.0,88,0.00,,,0.01,Wunderground v.1.12,2013-02-07 16:41:00,
2013-02-07 11:46:00,45.8,42.4,30.08,NE,46,0.0,-999.0,88,0.00,,,0.01,Wunderground v.1.12,2013-02-07 16:46:00,
2013-02-07 11:51:00,46.0,42.6,30.08,ENE,62,0.0,-999.0,88,0.00,,,0.01,Wunderground v.1.12,2013-02-07 16:51:00,
2013-02-07 11:56:00,46.0,42.6,30.08,NNE,30,0.0,-999.0,88,0.00,,,0.01,Wunderground v.1.12,2013-02-07 16:56:00,
2013-02-07 12:01:00,46.1,42.7,30.07,NE,37,0.0,-999.0,88,0.00,,,0.01,Wunderground v.1.12,2013-02-07 17:01:00,
2013-02-07 12:06:00,46.1,43.0,30.07,ENE,58,0.0,-999.0,89,0.00,,,0.01,Wunderground v.1.12,2013-02-07 17:06:00,
2013-02-07 12:11:00,46.2,43.1,30.07,ENE,64,0.0,-999.0,89,0.00,,,0.01,Wunderground v.1.12,2013-02-07 17:11:00,
2013-02-07 12:16:00,46.2,43.1,30.07,North,352,0.0,-999.0,89,0.00,,,0.01,Wunderground v.1.12,2013-02-07 17:16:00,
2013-02-07 12:21:00,46.2,43.1,30.07,NNE,13,0.0,-999.0,89,0.00,,,0.01,Wunderground v.1.12,2013-02-07 17:21:00,
2013-02-07 12:26:00,46.4,43.3,30.06,ENE,78,0.0,-999.0,89,0.00,,,0.01,Wunderground v.1.12,2013-02-07 17:26:00,
2013-02-07 12:31:00,46.4,43.6,30.06,East,88,0.0,-999.0,90,0.00,,,0.01,Wunderground v.1.12,2013-02-07 17:31:00,
2013-02-07 12:36:00,46.5,43.7,30.06,NNE,23,0.0,-999.0,90,0.00,,,0.01,Wunderground v.1.12,2013-02-07 17:36:00,
2013-02-07 12:41:00,46.5,43.7,30.05,North,6,0.0,-999.0,90,0.00,,,0.01,Wunderground v.1.12,2013-02-07 17:41:00,
2013-02-07 12:46:00,46.5,43.7,30.05,South,182,0.0,-999.0,90,0.00,,,0.01,Wunderground v.1.12,2013-02-07 17:46:00,
2013-02-07 12:51:00,46.5,43.7,30.05,East,79,0.0,-999.0,90,0.00,,,0.01,Wunderground v.1.12,2013-02-07 17:51:00,
2013-02-07 12:56:00,46.5,43.7,30.05,NE,47,1.0,-999.0,90,0.00,,,0.01,Wunderground v.1.12,2013-02-07 17:56:00,
2013-02-07 13:01:00,46.5,43.7,30.05,NE,37,0.0,-999.0,90,0.00,,,0.01,Wunderground v.1.12,2013-02-07 18:01:00,
2013-02-07 13:06:00,46.5,43.7,30.05,NE,50,3.0,-999.0,90,0.00,,,0.01,Wunderground v.1.12,2013-02-07 18:06:00,
2013-02-07 13:11:00,46.5,43.7,30.03,NE,37,0.0,-999.0,90,0.00,,,0.01,Wunderground v.1.12,2013-02-07 18:11:00,
2013-02-07 13:16:00,46.4,43.6,30.03,ENE,57,0.0,-999.0,90,0.00,,,0.01,Wunderground v.1.12,2013-02-07 18:16:00,
2013-02-07 13:22:00,46.4,43.6,30.03,NNE,26,0.0,-999.0,90,0.00,,,0.01,Wunderground v.1.12,2013-02-07 18:22:00,
2013-02-07 13:27:00,46.2,43.4,30.02,North,3,0.0,-999.0,90,0.00,,,0.01,Wunderground v.1.12,2013-02-07 18:27:00,
2013-02-07 13:32:00,46.1,43.3,30.02,NNE,29,3.0,-999.0,90,0.00,,,0.01,Wunderground v.1.12,2013-02-07 18:32:00,
2013-02-07 13:37:00,46.0,43.2,30.02,NNE,23,0.0,-999.0,90,0.00,,,0.01,Wunderground v.1.12,2013-02-07 18:37:00,
2013-02-07 13:42:00,45.8,43.0,30.02,North,9,1.0,-999.0,90,0.00,,,0.01,Wunderground v.1.12,2013-02-07 18:42:00,
2013-02-07 13:47:00,45.7,42.9,30.02,NNE,14,0.0,-999.0,90,0.00,,,0.01,Wunderground v.1.12,2013-02-07 18:47:00,
2013-02-07 13:52:00,45.7,42.9,30.02,NNW,345,0.0,-999.0,90,0.00,,,0.01,Wunderground v.1.12,2013-02-07 18:52:00,
2013-02-07 13:57:00,45.5,42.7,30.00,NNE,17,0.0,-999.0,90,0.00,,,0.01,Wunderground v.1.12,2013-02-07 18:57:00,
2013-02-07 14:02:00,45.5,42.7,30.00,NE,34,0.0,-999.0,90,0.00,,,0.01,Wunderground v.1.12,2013-02-07 19:02:00,
2013-02-07 14:07:00,45.5,42.7,30.00,ENE,68,0.0,-999.0,90,0.00,,,0.01,Wunderground v.1.12,2013-02-07 19:07:00,
2013-02-07 14:12:00,45.5,42.7,30.00,ENE,74,0.0,-999.0,90,0.00,,,0.01,Wunderground v.1.12,2013-02-07 19:12:00,
2013-02-07 14:17:00,45.5,42.7,30.00,NE,51,0.0,-999.0,90,0.00,,,0.01,Wunderground v.1.12,2013-02-07 19:17:00,
2013-02-07 14:22:00,45.4,42.6,30.00,East,79,4.0,-999.0,90,0.00,,,0.01,Wunderground v.1.12,2013-02-07 19:22:00,
2013-02-07 14:27:00,45.4,42.6,29.99,NNE,29,2.0,-999.0,90,0.00,,,0.01,Wunderground v.1.12,2013-02-07 19:27:00,
2013-02-07 14:33:00,45.4,42.6,29.99,NE,54,2.0,-999.0,90,0.00,,,0.01,Wunderground v.1.12,2013-02-07 19:33:00,
2013-02-07 14:38:00,45.2,42.4,29.99,NNE,31,0.0,-999.0,90,0.00,,,0.01,Wunderground v.1.12,2013-02-07 19:38:00,
2013-02-07 14:43:00,45.2,42.4,29.98,NNE,20,0.0,-999.0,90,0.00,,,0.01,Wunderground v.1.12,2013-02-07 19:43:00,
2013-02-07 14:49:00,45.2,42.4,29.98,North,355,1.0,-999.0,90,0.00,,,0.01,Wunderground v.1.12,2013-02-07 19:49:00,
2013-02-07 14:54:00,45.2,42.4,29.98,NNE,14,1.0,-999.0,90,0.00,,,0.01,Wunderground v.1.12,2013-02-07 19:54:00,
2013-02-07 14:59:00,45.2,42.4,29.98,NE,46,0.0,-999.0,90,0.00,,,0.01,Wunderground v.1.12,2013-02-07 19:59:00,
2013-02-07 15:04:00,45.2,42.4,29.98,NNE,20,2.0,-999.0,90,0.00,,,0.01,Wunderground v.1.12,2013-02-07 20:04:00,
2013-02-07 15:09:00,45.2,42.4,29.98,North,10,0.0,-999.0,90,0.00,,,0.01,Wunderground v.1.12,2013-02-07 20:09:00,
2013-02-07 15:14:00,45.2,42.4,29.97,NNE,16,0.0,-999.0,90,0.00,,,0.01,Wunderground v.1.12,2013-02-07 20:14:00,
2013-02-07 15:19:00,45.2,42.7,29.97,NNE,31,0.0,-999.0,91,0.00,,,0.01,Wunderground v.1.12,2013-02-07 20:19:00,
2013-02-07 15:24:00,45.2,42.7,29.97,NE,38,0.0,-999.0,91,0.00,,,0.01,Wunderground v.1.12,2013-02-07 20:24:00,
2013-02-07 15:29:00,45.2,42.7,29.96,NE,50,2.0,-999.0,91,0.00,,,0.01,Wunderground v.1.12,2013-02-07 20:29:00,
2013-02-07 15:35:00,45.2,42.7,29.96,NNE,17,1.0,-999.0,91,0.00,,,0.01,Wunderground v.1.12,2013-02-07 20:35:00,
2013-02-07 15:40:00,45.2,42.7,29.96,East,79,0.0,-999.0,91,0.00,,,0.01,Wunderground v.1.12,2013-02-07 20:40:00,
2013-02-07 15:45:00,45.2,42.7,29.95,ENE,57,0.0,-999.0,91,0.00,,,0.01,Wunderground v.1.12,2013-02-07 20:45:00,
2013-02-07 15:50:00,45.2,42.7,29.95,NNE,19,0.0,-999.0,91,0.00,,,0.01,Wunderground v.1.12,2013-02-07 20:50:00,
2013-02-07 15:55:00,45.2,42.7,29.95,North,352,0.0,-999.0,91,0.00,,,0.01,Wunderground v.1.12,2013-02-07 20:55:00,
2013-02-07 16:00:00,45.4,42.9,29.96,NNW,331,1.0,-999.0,91,0.00,,,0.01,Wunderground v.1.12,2013-02-07 21:00:00,
2013-02-07 16:05:00,45.2,42.7,29.96,NNW,339,0.0,-999.0,91,0.00,,,0.01,Wunderground v.1.12,2013-02-07 21:05:00,
2013-02-07 16:10:00,45.4,42.9,29.96,North,2,0.0,-999.0,91,0.00,,,0.01,Wunderground v.1.12,2013-02-07 21:10:00,
2013-02-07 16:15:00,45.4,42.9,29.97,NNE,26,0.0,-999.0,91,0.00,,,0.01,Wunderground v.1.12,2013-02-07 21:15:00,
2013-02-07 16:20:00,45.4,42.9,29.97,ENE,75,0.0,-999.0,91,0.00,,,0.01,Wunderground v.1.12,2013-02-07 21:20:00,
2013-02-07 16:25:00,45.4,42.9,29.97,NE,48,1.0,-999.0,91,0.00,,,0.01,Wunderground v.1.12,2013-02-07 21:25:00,
2013-02-07 16:30:00,45.4,42.9,29.95,NNE,13,0.0,-999.0,91,0.00,,,0.01,Wunderground v.1.12,2013-02-07 21:30:00,
2013-02-07 16:35:00,45.4,42.9,29.95,NNE,30,0.0,-999.0,91,0.00,,,0.01,Wunderground v.1.12,2013-02-07 21:35:00,
2013-02-07 16:40:00,45.4,43.2,29.95,ENE,67,0.0,-999.0,92,0.00,,,0.01,Wunderground v.1.12,2013-02-07 21:40:00,
2013-02-07 16:45:00,45.5,43.3,29.95,WNW,297,0.0,-999.0,92,0.00,,,0.01,Wunderground v.1.12,2013-02-07 21:45:00,
2013-02-07 16:50:00,45.5,43.3,29.95,North,352,0.0,-999.0,92,0.00,,,0.01,Wunderground v.1.12,2013-02-07 21:50:00,
2013-02-07 16:55:00,45.5,43.3,29.95,NNE,14,0.0,-999.0,92,0.00,,,0.01,Wunderground v.1.12,2013-02-07 21:55:00,
2013-02-07 17:00:00,45.5,43.3,29.95,ENE,68,0.0,-999.0,92,0.00,,,0.01,Wunderground v.1.12,2013-02-07 22:00:00,
2013-02-07 17:05:00,45.5,43.3,29.95,NNE,30,0.0,-999.0,92,0.00,,,0.01,Wunderground v.1.12,2013-02-07 22:05:00,
2013-02-07 17:10:00,45.7,43.5,29.95,East,92,0.0,-999.0,92,0.00,,,0.01,Wunderground v.1.12,2013-02-07 22:10:00,
2013-02-07 17:15:00,45.7,43.5,29.95,ENE,67,0.0,-999.0,92,0.00,,,0.01,Wunderground v.1.12,2013-02-07 22:15:00,
2013-02-07 17:20:00,45.7,43.5,29.95,NNE,24,0.0,-999.0,92,0.00,,,0.01,Wunderground v.1.12,2013-02-07 22:20:00,
2013-02-07 17:25:00,45.7,43.5,29.95,NNE,27,0.0,-999.0,92,0.00,,,0.01,Wunderground v.1.12,2013-02-07 22:25:00,
2013-02-07 17:30:00,45.7,43.5,29.95,NNE,27,0.0,-999.0,92,0.00,,,0.01,Wunderground v.1.12,2013-02-07 22:30:00,
2013-02-07 17:35:00,45.7,43.5,29.95,NE,37,0.0,-999.0,92,0.00,,,0.01,Wunderground v.1.12,2013-02-07 22:35:00,
2013-02-07 17:40:00,45.7,43.5,29.95,ENE,58,0.0,-999.0,92,0.00,,,0.01,Wunderground v.1.12,2013-02-07 22:40:00,
2013-02-07 17:45:00,45.8,43.6,29.95,North,2,0.0,-999.0,92,0.00,,,0.01,Wunderground v.1.12,2013-02-07 22:45:00,
2013-02-07 17:50:00,45.8,43.6,29.95,NE,48,0.0,-999.0,92,0.00,,,0.01,Wunderground v.1.12,2013-02-07 22:50:00,
2013-02-07 17:56:00,45.8,43.6,29.95,NE,50,0.0,-999.0,92,0.00,,,0.01,Wunderground v.1.12,2013-02-07 22:56:00,
2013-02-07 18:01:00,45.8,43.6,29.95,ENE,78,0.0,-999.0,92,0.00,,,0.01,Wunderground v.1.12,2013-02-07 23:01:00,
2013-02-07 18:06:00,45.8,43.6,29.95,North,353,2.0,-999.0,92,0.00,,,0.01,Wunderground v.1.12,2013-02-07 23:06:00,
2013-02-07 18:11:00,45.8,43.6,29.95,ENE,72,2.0,-999.0,92,0.00,,,0.01,Wunderground v.1.12,2013-02-07 23:11:00,
2013-02-07 18:16:00,45.8,43.6,29.94,East,84,0.0,-999.0,92,0.00,,,0.01,Wunderground v.1.12,2013-02-07 23:16:00,
2013-02-07 18:21:00,45.8,43.6,29.94,ENE,68,0.0,-999.0,92,0.00,,,0.01,Wunderground v.1.12,2013-02-07 23:21:00,
2013-02-07 18:26:00,45.8,43.6,29.94,North,349,0.0,-999.0,92,0.00,,,0.01,Wunderground v.1.12,2013-02-07 23:26:00,
2013-02-07 18:31:00,45.8,43.6,29.94,ENE,60,0.0,-999.0,92,0.00,,,0.01,Wunderground v.1.12,2013-02-07 23:31:00,
2013-02-07 18:36:00,45.8,43.6,29.94,North,349,0.0,-999.0,92,0.00,,,0.01,Wunderground v.1.12,2013-02-07 23:36:00,
2013-02-07 18:41:00,45.8,43.6,29.94,NE,43,0.0,-999.0,92,0.00,,,0.01,Wunderground v.1.12,2013-02-07 23:41:00,
2013-02-07 18:46:00,45.8,43.6,29.94,NNE,24,6.0,-999.0,92,0.00,,,0.01,Wunderground v.1.12,2013-02-07 23:46:00,
2013-02-07 18:51:00,45.8,43.6,29.94,ENE,60,0.0,-999.0,92,0.00,,,0.01,Wunderground v.1.12,2013-02-07 23:51:00,
2013-02-07 18:56:00,45.8,43.6,29.94,ENE,72,1.0,-999.0,92,0.00,,,0.01,Wunderground v.1.12,2013-02-07 23:56:00,
2013-02-07 19:01:00,46.0,43.8,29.94,NE,48,0.0,-999.0,92,0.00,,,0.01,Wunderground v.1.12,2013-02-08 00:01:00,
2013-02-07 19:06:00,46.0,43.8,29.94,NE,44,1.0,-999.0,92,0.00,,,0.01,Wunderground v.1.12,2013-02-08 00:06:00,
2013-02-07 19:11:00,46.0,43.8,29.95,NNW,346,0.0,-999.0,92,0.00,,,0.01,Wunderground v.1.12,2013-02-08 00:11:00,
2013-02-07 19:16:00,46.0,43.8,29.95,NE,36,0.0,-999.0,92,0.00,,,0.01,Wunderground v.1.12,2013-02-08 00:16:00,
2013-02-07 19:21:00,46.0,43.8,29.95,NE,34,0.0,-999.0,92,0.00,,,0.01,Wunderground v.1.12,2013-02-08 00:21:00,
2013-02-07 19:26:00,46.0,43.8,29.95,NNE,14,0.0,-999.0,92,0.00,,,0.01,Wunderground v.1.12,2013-02-08 00:26:00,
2013-02-07 19:31:00,46.0,43.8,29.95,ENE,60,0.0,-999.0,92,0.00,,,0.01,Wunderground v.1.12,2013-02-08 00:31:00,
2013-02-07 19:36:00,46.0,43.8,29.95,NNE,20,0.0,-999.0,92,0.00,,,0.01,Wunderground v.1.12,2013-02-08 00:36:00,
2013-02-07 19:41:00,46.0,43.8,29.95,North,7,0.0,-999.0,92,0.00,,,0.01,Wunderground v.1.12,2013-02-08 00:41:00,
2013-02-07 19:46:00,46.0,43.8,29.95,East,84,2.0,-999.0,92,0.00,,,0.01,Wunderground v.1.12,2013-02-08 00:46:00,
2013-02-07 19:51:00,46.0,43.8,29.95,NNE,17,0.0,-999.0,92,0.00,,,0.01,Wunderground v.1.12,2013-02-08 00:51:00,
2013-02-07 19:56:00,46.0,43.8,29.95,NNE,17,0.0,-999.0,92,0.00,,,0.01,Wunderground v.1.12,2013-02-08 00:56:00,
2013-02-07 20:01:00,46.1,43.9,29.95,NNW,334,0.0,-999.0,92,0.00,,,0.01,Wunderground v.1.12,2013-02-08 01:01:00,
2013-02-07 20:06:00,46.1,43.9,29.95,NNE,19,0.0,-999.0,92,0.00,,,0.01,Wunderground v.1.12,2013-02-08 01:06:00,
2013-02-07 20:11:00,46.1,43.9,29.95,NW,326,0.0,-999.0,92,0.00,,,0.01,Wunderground v.1.12,2013-02-08 01:11:00,
2013-02-07 20:16:00,46.1,43.9,29.95,North,6,0.0,-999.0,92,0.00,,,0.01,Wunderground v.1.12,2013-02-08 01:16:00,
2013-02-07 20:21:00,46.1,43.9,29.95,NNE,27,0.0,-999.0,92,0.00,,,0.01,Wunderground v.1.12,2013-02-08 01:21:00,
2013-02-07 20:26:00,46.1,43.9,29.95,NE,34,0.0,-999.0,92,0.00,,,0.01,Wunderground v.1.12,2013-02-08 01:26:00,
2013-02-07 20:31:00,46.1,43.9,29.95,NE,34,0.0,-999.0,92,0.00,,,0.01,Wunderground v.1.12,2013-02-08 01:31:00,
2013-02-07 20:36:00,46.1,43.9,29.95,NE,53,0.0,-999.0,92,0.00,,,0.01,Wunderground v.1.12,2013-02-08 01:36:00,
2013-02-07 20:41:00,46.1,43.9,29.95,NE,48,0.0,-999.0,92,0.00,,,0.01,Wunderground v.1.12,2013-02-08 01:41:00,
2013-02-07 20:46:00,46.1,43.9,29.95,NE,47,0.0,-999.0,92,0.00,,,0.01,Wunderground v.1.12,2013-02-08 01:46:00,
2013-02-07 20:51:00,46.1,43.9,29.95,NE,44,0.0,-999.0,92,0.00,,,0.01,Wunderground v.1.12,2013-02-08 01:51:00,
2013-02-07 20:56:00,46.1,43.9,29.96,NE,41,0.0,-999.0,92,0.00,,,0.01,Wunderground v.1.12,2013-02-08 01:56:00,
2013-02-07 21:01:00,46.2,44.0,29.96,NNW,342,0.0,-999.0,92,0.00,,,0.01,Wunderground v.1.12,2013-02-08 02:01:00,
2013-02-07 21:06:00,46.2,44.0,29.96,East,85,0.0,-999.0,92,0.00,,,0.01,Wunderground v.1.12,2013-02-08 02:06:00,
2013-02-07 21:11:00,46.2,44.0,29.96,ENE,75,0.0,-999.0,92,0.00,,,0.01,Wunderground v.1.12,2013-02-08 02:11:00,
2013-02-07 21:16:00,46.2,44.0,29.96,NE,40,0.0,-999.0,92,0.00,,,0.01,Wunderground v.1.12,2013-02-08 02:16:00,
2013-02-07 21:22:00,46.2,44.0,29.96,NE,38,0.0,-999.0,92,0.00,,,0.01,Wunderground v.1.12,2013-02-08 02:22:00,
2013-02-07 21:27:00,46.2,44.0,29.96,NNE,29,0.0,-999.0,92,0.00,,,0.01,Wunderground v.1.12,2013-02-08 02:27:00,
2013-02-07 21:32:00,46.2,44.0,29.96,NE,48,0.0,-999.0,92,0.00,,,0.01,Wunderground v.1.12,2013-02-08 02:32:00,
2013-02-07 21:37:00,46.4,44.2,29.96,NE,34,0.0,-999.0,92,0.00,,,0.01,Wunderground v.1.12,2013-02-08 02:37:00,
2013-02-07 21:42:00,46.4,44.2,29.96,NE,34,0.0,-999.0,92,0.00,,,0.01,Wunderground v.1.12,2013-02-08 02:42:00,
2013-02-07 21:47:00,46.4,44.2,29.96,NE,34,0.0,-999.0,92,0.00,,,0.01,Wunderground v.1.12,2013-02-08 02:47:00,
2013-02-07 21:52:00,46.4,44.2,29.96,NNE,20,0.0,-999.0,92,0.00,,,0.01,Wunderground v.1.12,2013-02-08 02:52:00,
2013-02-07 21:57:00,46.4,44.2,29.96,NNE,20,0.0,-999.0,92,0.00,,,0.01,Wunderground v.1.12,2013-02-08 02:57:00,
2013-02-07 22:02:00,46.4,44.2,29.96,NNE,20,0.0,-999.0,92,0.00,,,0.01,Wunderground v.1.12,2013-02-08 03:02:00,
2013-02-07 22:07:00,46.4,44.2,29.96,NNE,20,0.0,-999.0,92,0.00,,,0.01,Wunderground v.1.12,2013-02-08 03:07:00,
2013-02-07 22:12:00,46.4,44.2,29.96,NNE,20,0.0,-999.0,92,0.00,,,0.01,Wunderground v.1.12,2013-02-08 03:12:00,
2013-02-07 22:17:00,46.4,44.2,29.96,NNE,22,0.0,-999.0,92,0.00,,,0.01,Wunderground v.1.12,2013-02-08 03:17:00,
2013-02-07 22:22:00,46.5,44.3,29.96,NNE,22,0.0,-999.0,92,0.00,,,0.01,Wunderground v.1.12,2013-02-08 03:22:00,
2013-02-07 22:27:00,46.5,44.3,29.95,NNE,22,0.0,-999.0,92,0.00,,,0.01,Wunderground v.1.12,2013-02-08 03:27:00,
2013-02-07 22:32:00,46.5,44.3,29.95,NNE,22,0.0,-999.0,92,0.00,,,0.01,Wunderground v.1.12,2013-02-08 03:32:00,
2013-02-07 22:37:00,46.5,44.3,29.95,NNE,23,0.0,-999.0,92,0.00,,,0.01,Wunderground v.1.12,2013-02-08 03:37:00,
2013-02-07 22:43:00,46.5,44.3,29.95,NNE,24,0.0,-999.0,92,0.00,,,0.01,Wunderground v.1.12,2013-02-08 03:43:00,
2013-02-07 22:48:00,46.5,44.3,29.95,NE,40,0.0,-999.0,92,0.00,,,0.01,Wunderground v.1.12,2013-02-08 03:48:00,
2013-02-07 22:53:00,46.5,44.3,29.95,NE,40,0.0,-999.0,92,0.00,,,0.01,Wunderground v.1.12,2013-02-08 03:53:00,
2013-02-07 22:58:00,46.5,44.3,29.95,NE,40,0.0,-999.0,92,0.00,,,0.00,Wunderground v.1.12,2013-02-08 03:58:00,
2013-02-07 23:03:00,46.7,44.5,29.95,NE,41,0.0,-999.0,92,0.00,,,0.00,Wunderground v.1.12,2013-02-08 04:03:00,
2013-02-07 23:08:00,46.7,44.5,29.95,NNE,19,0.0,-999.0,92,0.00,,,0.00,Wunderground v.1.12,2013-02-08 04:08:00,
2013-02-07 23:13:00,46.7,44.5,29.95,NNE,19,0.0,-999.0,92,0.00,,,0.00,Wunderground v.1.12,2013-02-08 04:13:00,
2013-02-07 23:19:00,46.7,44.8,29.95,NNE,19,0.0,-999.0,93,0.00,,,0.00,Wunderground v.1.12,2013-02-08 04:19:00,
2013-02-07 23:23:00,46.7,44.8,29.95,NNE,19,0.0,-999.0,93,0.00,,,0.00,Wunderground v.1.12,2013-02-08 04:23:00,
2013-02-07 23:28:00,46.7,44.8,29.95,NNE,19,0.0,-999.0,93,0.00,,,0.00,Wunderground v.1.12,2013-02-08 04:28:00,
2013-02-07 23:34:00,46.7,44.8,29.95,NNE,22,0.0,-999.0,93,0.00,,,0.00,Wunderground v.1.12,2013-02-08 04:34:00,
2013-02-07 23:39:00,46.7,44.8,29.95,NNE,22,0.0,-999.0,93,0.00,,,0.00,Wunderground v.1.12,2013-02-08 04:39:00,
2013-02-07 23:44:00,46.7,44.8,29.94,NNE,22,0.0,-999.0,93,0.00,,,0.00,Wunderground v.1.12,2013-02-08 04:44:00,
2013-02-07 23:49:00,46.7,44.8,29.94,NNE,26,0.0,-999.0,93,0.00,,,0.00,Wunderground v.1.12,2013-02-08 04:49:00,
2013-02-07 23:54:00,46.7,44.8,29.94,NNE,26,0.0,-999.0,93,0.00,,,0.00,Wunderground v.1.12,2013-02-08 04:54:00,
2013-02-07 23:59:00,46.7,44.8,29.94,NNE,26,0.0,-999.0,93,0.00,,,0.00,Wunderground v.1.12,2013-02-08 04:59:00,